Time,TemperatureF,DewpointF,PressureIn,WindDirection,WindDirectionDegrees,WindSpeedMPH,WindSpeedGustMPH,Humidity,HourlyPrecipIn,Conditions,Clouds,dailyrainin,SoftwareType,DateUTC
2013-03-09 00:00:00,43.2,38.7,30.26,East,92,0.0,0.0,84,0.00,,---,0.00,VWS V14.01,2013-03-09 08:00:00,
2013-03-09 00:05:00,43.2,38.7,30.26,East,92,0.0,0.0,84,0.00,,---,0.00,VWS V14.01,2013-03-09 08:05:00,
2013-03-09 00:10:00,43.2,38.7,30.27,East,92,0.0,0.0,84,0.00,,---,0.00,VWS V14.01,2013-03-09 08:10:00,
2013-03-09 00:15:00,43.3,38.8,30.27,East,92,0.0,0.0,84,0.00,,---,0.00,VWS V14.01,2013-03-09 08:15:00,
2013-03-09 00:20:00,43.3,38.8,30.27,East,92,0.0,0.0,84,0.00,,---,0.00,VWS V14.01,2013-03-09 08:20:00,
2013-03-09 00:25:00,43.3,38.8,30.27,East,92,0.0,0.0,84,0.00,,---,0.00,VWS V14.01,2013-03-09 08:25:00,
2013-03-09 00:30:00,43.3,38.8,30.27,East,92,0.0,0.0,84,0.00,,---,0.00,VWS V14.01,2013-03-09 08:30:00,
2013-03-09 00:35:00,43.3,38.8,30.27,East,92,0.0,0.0,84,0.00,,---,0.00,VWS V14.01,2013-03-09 08:35:00,
2013-03-09 00:40:00,43.2,38.7,30.27,East,92,0.0,0.0,84,0.00,,---,0.00,VWS V14.01,2013-03-09 08:40:00,
2013-03-09 00:45:00,43.1,38.9,30.28,East,92,0.0,0.0,85,0.00,,---,0.00,VWS V14.01,2013-03-09 08:45:00,
2013-03-09 00:50:00,42.7,38.5,30.28,East,92,0.0,0.0,85,0.00,,---,0.00,VWS V14.01,2013-03-09 08:50:00,
2013-03-09 00:55:00,42.5,38.6,30.28,East,92,0.0,0.0,86,0.00,,---,0.00,VWS V14.01,2013-03-09 08:55:00,
2013-03-09 01:00:00,42.4,38.5,30.28,East,92,0.0,0.0,86,0.00,,---,0.00,VWS V14.01,2013-03-09 09:00:00,
2013-03-09 01:05:00,42.3,38.4,30.28,East,92,0.0,0.0,86,0.00,,---,0.00,VWS V14.01,2013-03-09 09:05:00,
2013-03-09 01:10:00,42.2,38.6,30.28,East,92,0.0,0.0,87,0.00,,---,0.00,VWS V14.01,2013-03-09 09:10:00,
2013-03-09 01:15:00,42.1,38.5,30.29,East,92,0.0,0.0,87,0.00,,---,0.00,VWS V14.01,2013-03-09 09:15:00,
2013-03-09 01:20:00,42.0,38.7,30.29,East,92,0.0,0.0,88,0.00,,---,0.00,VWS V14.01,2013-03-09 09:20:00,
2013-03-09 01:25:00,41.8,38.5,30.29,East,92,0.0,0.0,88,0.00,,---,0.00,VWS V14.01,2013-03-09 09:25:00,
2013-03-09 01:30:00,41.6,38.3,30.29,East,92,0.0,0.0,88,0.00,,---,0.00,VWS V14.01,2013-03-09 09:30:00,
2013-03-09 01:35:00,41.5,38.5,30.29,East,92,0.0,0.0,89,0.00,,---,0.00,VWS V14.01,2013-03-09 09:35:00,
2013-03-09 01:40:00,41.4,38.4,30.30,East,92,0.0,0.0,89,0.00,,---,0.00,VWS V14.01,2013-03-09 09:40:00,
2013-03-09 01:45:00,41.4,38.4,30.30,East,92,0.0,0.0,89,0.00,,---,0.00,VWS V14.01,2013-03-09 09:45:00,
2013-03-09 01:50:00,41.4,38.7,30.30,East,92,0.0,0.0,90,0.00,,---,0.00,VWS V14.01,2013-03-09 09:50:00,
2013-03-09 01:55:00,41.5,38.8,30.30,East,92,0.0,0.0,90,0.00,,---,0.00,VWS V14.01,2013-03-09 09:55:00,
2013-03-09 02:00:00,41.5,38.8,30.30,East,92,0.0,0.0,90,0.00,,---,0.00,VWS V14.01,2013-03-09 10:00:00,
2013-03-09 02:05:00,41.5,38.8,30.30,East,92,0.0,0.0,90,0.00,,---,0.00,VWS V14.01,2013-03-09 10:05:00,
2013-03-09 02:10:00,41.5,38.8,30.30,East,92,0.0,0.0,90,0.00,,---,0.00,VWS V14.01,2013-03-09 10:10:00,
2013-03-09 02:15:00,41.3,38.6,30.30,East,92,0.0,0.0,90,0.00,,---,0.00,VWS V14.01,2013-03-09 10:15:00,
2013-03-09 02:20:00,41.0,38.3,30.30,East,92,0.0,0.0,90,0.00,,---,0.00,VWS V14.01,2013-03-09 10:20:00,
2013-03-09 02:25:00,40.9,38.5,30.30,East,92,0.0,0.0,91,0.00,,---,0.00,VWS V14.01,2013-03-09 10:25:00,
2013-03-09 02:30:00,40.7,38.3,30.31,East,92,0.0,0.0,91,0.00,,---,0.00,VWS V14.01,2013-03-09 10:30:00,
2013-03-09 02:35:00,40.7,38.3,30.31,East,92,0.0,0.0,91,0.00,,---,0.00,VWS V14.01,2013-03-09 10:35:00,
2013-03-09 02:40:00,40.6,38.2,30.30,East,92,0.0,0.0,91,0.00,,---,0.00,VWS V14.01,2013-03-09 10:40:00,
2013-03-09 02:45:00,40.6,38.2,30.31,East,92,0.0,0.0,91,0.00,,---,0.00,VWS V14.01,2013-03-09 10:45:00,
2013-03-09 02:50:00,40.5,38.1,30.31,East,92,0.0,0.0,91,0.00,,---,0.00,VWS V14.01,2013-03-09 10:50:00,
2013-03-09 02:55:00,40.4,38.0,30.31,East,92,0.0,0.0,91,0.00,,---,0.00,VWS V14.01,2013-03-09 10:55:00,
2013-03-09 03:00:00,40.3,37.9,30.31,East,92,0.0,0.0,91,0.00,,---,0.00,VWS V14.01,2013-03-09 11:00:00,
2013-03-09 03:05:00,40.2,37.8,30.31,East,92,0.0,0.0,91,0.00,,---,0.00,VWS V14.01,2013-03-09 11:05:00,
2013-03-09 03:10:00,40.2,38.1,30.31,East,92,0.0,0.0,92,0.00,,---,0.00,VWS V14.01,2013-03-09 11:10:00,
2013-03-09 03:15:00,40.1,38.0,30.31,East,92,0.0,0.0,92,0.00,,---,0.00,VWS V14.01,2013-03-09 11:15:00,
2013-03-09 03:20:00,40.0,37.9,30.31,East,92,0.0,0.0,92,0.00,,---,0.00,VWS V14.01,2013-03-09 11:20:00,
2013-03-09 03:25:00,40.0,37.9,30.32,East,92,0.0,0.0,92,0.00,,---,0.00,VWS V14.01,2013-03-09 11:25:00,
2013-03-09 03:30:00,39.9,37.8,30.32,East,92,0.0,0.0,92,0.00,,---,0.00,VWS V14.01,2013-03-09 11:30:00,
2013-03-09 03:35:00,39.8,37.7,30.32,East,92,0.0,0.0,92,0.00,,---,0.00,VWS V14.01,2013-03-09 11:35:00,
2013-03-09 03:40:00,39.7,37.6,30.32,East,92,0.0,0.0,92,0.00,,---,0.00,VWS V14.01,2013-03-09 11:40:00,
2013-03-09 03:45:00,39.7,37.8,30.32,East,92,0.0,0.0,93,0.00,,---,0.00,VWS V14.01,2013-03-09 11:45:00,
2013-03-09 03:50:00,39.7,37.8,30.32,East,92,0.0,0.0,93,0.00,,---,0.00,VWS V14.01,2013-03-09 11:50:00,
2013-03-09 03:55:00,39.7,37.8,30.32,East,92,0.0,0.0,93,0.00,,---,0.00,VWS V14.01,2013-03-09 11:55:00,
2013-03-09 04:00:00,39.6,37.8,30.33,East,92,0.0,0.0,93,0.00,,---,0.00,VWS V14.01,2013-03-09 12:00:00,
2013-03-09 04:05:00,39.5,37.7,30.33,East,92,0.0,0.0,93,0.00,,---,0.00,VWS V14.01,2013-03-09 12:05:00,
2013-03-09 04:10:00,39.5,37.7,30.33,East,92,0.0,0.0,93,0.00,,---,0.00,VWS V14.01,2013-03-09 12:10:00,
2013-03-09 04:15:00,39.5,37.7,30.33,East,92,0.0,0.0,93,0.00,,---,0.00,VWS V14.01,2013-03-09 12:15:00,
2013-03-09 04:20:00,39.5,37.7,30.33,East,92,0.0,0.0,93,0.00,,---,0.00,VWS V14.01,2013-03-09 12:20:00,
2013-03-09 04:25:00,39.5,37.7,30.33,East,92,0.0,0.0,93,0.00,,---,0.00,VWS V14.01,2013-03-09 12:25:00,
2013-03-09 04:30:00,39.4,37.5,30.33,East,92,0.0,0.0,93,0.00,,---,0.00,VWS V14.01,2013-03-09 12:30:00,
2013-03-09 04:35:00,39.3,37.5,30.33,East,92,0.0,0.0,93,0.00,,---,0.00,VWS V14.01,2013-03-09 12:35:00,
2013-03-09 04:40:00,39.3,37.5,30.34,East,92,0.0,0.0,93,0.00,,---,0.00,VWS V14.01,2013-03-09 12:40:00,
2013-03-09 04:45:00,39.1,37.2,30.34,East,92,0.0,0.0,93,0.00,,---,0.00,VWS V14.01,2013-03-09 12:45:00,
2013-03-09 04:50:00,39.0,37.2,30.34,East,92,0.0,0.0,93,0.00,,---,0.00,VWS V14.01,2013-03-09 12:50:00,
2013-03-09 04:55:00,38.8,37.0,30.34,East,92,0.0,0.0,93,0.00,,---,0.00,VWS V14.01,2013-03-09 12:55:00,
2013-03-09 05:00:00,38.6,36.8,30.34,East,92,0.0,0.0,93,0.00,,---,0.00,VWS V14.01,2013-03-09 13:00:00,
2013-03-09 05:05:00,38.4,36.8,30.34,East,92,0.0,0.0,94,0.00,,---,0.00,VWS V14.01,2013-03-09 13:05:00,
2013-03-09 05:10:00,38.3,36.7,30.34,East,92,0.0,0.0,94,0.00,,---,0.00,VWS V14.01,2013-03-09 13:10:00,
2013-03-09 05:15:00,38.2,36.6,30.35,East,92,0.0,0.0,94,0.00,,---,0.00,VWS V14.01,2013-03-09 13:15:00,
2013-03-09 05:20:00,38.2,36.6,30.35,East,92,0.0,0.0,94,0.00,,---,0.00,VWS V14.01,2013-03-09 13:20:00,
2013-03-09 05:25:00,38.1,36.8,30.35,East,92,0.0,0.0,95,0.00,,---,0.00,VWS V14.01,2013-03-09 13:25:00,
2013-03-09 05:30:00,38.0,36.7,30.35,East,92,0.0,0.0,95,0.00,,---,0.00,VWS V14.01,2013-03-09 13:30:00,
2013-03-09 05:35:00,37.7,36.4,30.35,East,92,0.0,0.0,95,0.00,,---,0.00,VWS V14.01,2013-03-09 13:35:00,
2013-03-09 05:40:00,37.5,36.2,30.36,East,92,0.0,0.0,95,0.00,,---,0.00,VWS V14.01,2013-03-09 13:40:00,
2013-03-09 05:45:00,37.3,36.0,30.36,East,92,0.0,0.0,95,0.00,,---,0.00,VWS V14.01,2013-03-09 13:45:00,
2013-03-09 05:50:00,37.2,36.2,30.36,East,92,0.0,0.0,96,0.00,,---,0.00,VWS V14.01,2013-03-09 13:50:00,
2013-03-09 05:55:00,37.3,36.3,30.36,East,92,0.0,0.0,96,0.00,,---,0.00,VWS V14.01,2013-03-09 13:55:00,
2013-03-09 06:00:00,37.2,36.2,30.36,East,92,0.0,0.0,96,0.00,,---,0.00,VWS V14.01,2013-03-09 14:00:00,
2013-03-09 06:05:00,37.2,36.2,30.37,East,92,0.0,0.0,96,0.00,,---,0.00,VWS V14.01,2013-03-09 14:05:00,
2013-03-09 06:10:00,37.1,36.1,30.37,East,92,0.0,0.0,96,0.00,,---,0.00,VWS V14.01,2013-03-09 14:10:00,
2013-03-09 06:15:00,37.1,36.1,30.37,East,92,0.0,0.0,96,0.00,,---,0.00,VWS V14.01,2013-03-09 14:15:00,
2013-03-09 06:20:00,37.0,36.0,30.37,East,92,0.0,0.0,96,0.00,,---,0.00,VWS V14.01,2013-03-09 14:20:00,
2013-03-09 06:25:00,37.1,36.3,30.37,East,92,0.0,0.0,97,0.00,,---,0.00,VWS V14.01,2013-03-09 14:25:00,
2013-03-09 06:30:00,37.2,36.4,30.37,East,92,0.0,0.0,97,0.00,,---,0.00,VWS V14.01,2013-03-09 14:30:00,
2013-03-09 06:35:00,37.3,36.5,30.37,East,92,0.0,0.0,97,0.00,,---,0.00,VWS V14.01,2013-03-09 14:35:00,
2013-03-09 06:40:00,37.4,36.6,30.37,East,92,0.0,0.0,97,0.00,,---,0.00,VWS V14.01,2013-03-09 14:40:00,
2013-03-09 06:45:00,37.4,36.6,30.38,East,92,0.0,0.0,97,0.00,,---,0.00,VWS V14.01,2013-03-09 14:45:00,
2013-03-09 06:50:00,37.5,36.7,30.38,East,92,0.0,0.0,97,0.00,,---,0.00,VWS V14.01,2013-03-09 14:50:00,
2013-03-09 06:55:00,37.5,36.7,30.38,East,92,0.0,0.0,97,0.00,,---,0.00,VWS V14.01,2013-03-09 14:55:00,
2013-03-09 07:00:00,37.3,36.5,30.38,East,92,0.0,0.0,97,0.00,,---,0.00,VWS V14.01,2013-03-09 15:00:00,
2013-03-09 07:05:00,37.2,36.4,30.39,East,92,0.0,0.0,97,0.00,,---,0.00,VWS V14.01,2013-03-09 15:05:00,
2013-03-09 07:10:00,37.3,36.5,30.39,East,92,0.0,0.0,97,0.00,,---,0.00,VWS V14.01,2013-03-09 15:10:00,
2013-03-09 07:14:00,37.4,36.6,30.40,East,92,0.0,0.0,97,0.00,,---,0.00,VWS V14.01,2013-03-09 15:14:00,
2013-03-09 07:15:00,38.0,37.2,30.43,ESE,119,0.0,0.0,97,0.00,,---,0.00,VWS V14.01,2013-03-09 15:15:00,
2013-03-09 07:19:00,37.4,36.6,30.40,East,92,0.0,0.0,97,0.00,,---,0.00,VWS V14.01,2013-03-09 15:19:00,
2013-03-09 07:24:00,37.2,36.4,30.41,East,92,0.0,0.0,97,0.00,,---,0.00,VWS V14.01,2013-03-09 15:24:00,
2013-03-09 07:29:00,37.1,36.3,30.41,East,92,0.0,0.0,97,0.00,,---,0.00,VWS V14.01,2013-03-09 15:29:00,
2013-03-09 07:30:00,38.4,37.9,30.43,ESE,119,0.0,0.0,98,0.00,,---,0.00,VWS V14.01,2013-03-09 15:30:00,
2013-03-09 07:34:00,37.4,36.6,30.41,East,92,0.0,0.0,97,0.00,,---,0.00,VWS V14.01,2013-03-09 15:34:00,
2013-03-09 07:39:00,37.6,37.1,30.41,East,92,0.0,0.0,98,0.00,,---,0.00,VWS V14.01,2013-03-09 15:39:00,
2013-03-09 07:44:00,37.8,37.3,30.41,East,92,0.0,0.0,98,0.00,,---,0.00,VWS V14.01,2013-03-09 15:44:00,
2013-03-09 07:45:00,38.6,38.1,30.44,ESE,119,0.0,0.0,98,0.00,,---,0.00,VWS V14.01,2013-03-09 15:45:00,
2013-03-09 07:49:00,38.0,37.5,30.41,East,92,0.0,0.0,98,0.00,,---,0.00,VWS V14.01,2013-03-09 15:49:00,
2013-03-09 07:54:00,38.2,37.7,30.41,East,101,0.0,0.0,98,0.00,,---,0.00,VWS V14.01,2013-03-09 15:54:00,
2013-03-09 07:59:00,38.2,37.7,30.42,ESE,119,0.0,0.0,98,0.00,,---,0.00,VWS V14.01,2013-03-09 15:59:00,
2013-03-09 08:00:00,39.7,39.2,30.43,ESE,119,0.0,0.0,98,0.00,,---,0.00,VWS V14.01,2013-03-09 16:00:00,
2013-03-09 08:04:00,38.2,37.7,30.42,ESE,119,0.0,0.0,98,0.00,,---,0.00,VWS V14.01,2013-03-09 16:04:00,
2013-03-09 08:09:00,38.3,37.8,30.43,ESE,119,0.0,0.0,98,0.00,,---,0.00,VWS V14.01,2013-03-09 16:09:00,
2013-03-09 08:14:00,38.1,37.6,30.43,ESE,119,0.0,0.0,98,0.00,,---,0.00,VWS V14.01,2013-03-09 16:14:00,
2013-03-09 08:15:00,40.3,39.8,30.43,ESE,122,0.0,0.0,98,0.00,,---,0.00,VWS V14.01,2013-03-09 16:15:00,
2013-03-09 08:19:00,38.1,37.6,30.43,ESE,119,0.0,0.0,98,0.00,,---,0.00,VWS V14.01,2013-03-09 16:19:00,
2013-03-09 08:24:00,38.3,37.8,30.43,ESE,119,0.0,0.0,98,0.00,,---,0.00,VWS V14.01,2013-03-09 16:24:00,
2013-03-09 08:29:00,38.4,37.9,30.43,ESE,119,0.0,0.0,98,0.00,,---,0.00,VWS V14.01,2013-03-09 16:29:00,
2013-03-09 08:30:00,41.5,40.7,30.44,ESE,122,0.0,0.0,97,0.00,,---,0.00,VWS V14.01,2013-03-09 16:30:00,
2013-03-09 08:34:00,38.4,37.9,30.43,ESE,119,0.0,0.0,98,0.00,,---,0.00,VWS V14.01,2013-03-09 16:34:00,
2013-03-09 08:39:00,38.4,37.9,30.43,ESE,119,0.0,0.0,98,0.00,,---,0.00,VWS V14.01,2013-03-09 16:39:00,
2013-03-09 08:44:00,38.5,38.0,30.44,ESE,119,0.0,0.0,98,0.00,,---,0.00,VWS V14.01,2013-03-09 16:44:00,
2013-03-09 08:45:00,42.1,40.2,30.44,North,355,0.0,0.0,93,0.00,,---,0.00,VWS V14.01,2013-03-09 16:45:00,
2013-03-09 08:49:00,38.9,38.4,30.43,ESE,119,0.0,0.0,98,0.00,,---,0.00,VWS V14.01,2013-03-09 16:49:00,
2013-03-09 08:54:00,39.2,38.7,30.43,ESE,119,0.0,0.0,98,0.00,,---,0.00,VWS V14.01,2013-03-09 16:54:00,
2013-03-09 08:59:00,39.5,39.0,30.43,ESE,119,0.0,0.0,98,0.00,,---,0.00,VWS V14.01,2013-03-09 16:59:00,
2013-03-09 09:00:00,41.9,39.2,30.45,NNW,340,0.0,0.0,90,0.00,,---,0.00,VWS V14.01,2013-03-09 17:00:00,
2013-03-09 09:04:00,39.9,39.4,30.43,ESE,120,0.0,0.0,98,0.00,,---,0.00,VWS V14.01,2013-03-09 17:04:00,
2013-03-09 09:09:00,40.2,39.7,30.42,ESE,122,0.0,0.0,98,0.00,,---,0.00,VWS V14.01,2013-03-09 17:09:00,
2013-03-09 09:14:00,40.4,39.9,30.43,ESE,122,0.0,0.0,98,0.00,,---,0.00,VWS V14.01,2013-03-09 17:14:00,
2013-03-09 09:15:00,43.4,39.5,30.45,WSW,253,0.0,0.0,86,0.00,,---,0.00,VWS V14.01,2013-03-09 17:15:00,
2013-03-09 09:19:00,40.5,40.0,30.44,ESE,122,0.0,0.0,98,0.00,,---,0.00,VWS V14.01,2013-03-09 17:19:00,
2013-03-09 09:24:00,41.0,40.5,30.44,ESE,122,0.0,0.0,98,0.00,,---,0.00,VWS V14.01,2013-03-09 17:24:00,
2013-03-09 09:29:00,41.5,41.0,30.44,ESE,122,0.0,0.0,98,0.00,,---,0.00,VWS V14.01,2013-03-09 17:29:00,
2013-03-09 09:30:00,44.8,38.4,30.45,SW,235,0.0,0.0,78,0.00,,---,0.00,VWS V14.01,2013-03-09 17:30:00,
2013-03-09 09:34:00,41.4,40.3,30.44,ESE,122,0.0,0.0,96,0.00,,---,0.00,VWS V14.01,2013-03-09 17:34:00,
2013-03-09 09:39:00,41.5,40.2,30.44,ESE,122,0.0,0.0,95,0.00,,---,0.00,VWS V14.01,2013-03-09 17:39:00,
2013-03-09 09:44:00,42.0,40.1,30.44,NE,49,0.0,0.0,93,0.00,,---,0.00,VWS V14.01,2013-03-09 17:44:00,
2013-03-09 09:45:00,42.1,38.5,30.46,WSW,242,0.0,0.0,87,0.00,,---,0.00,VWS V14.01,2013-03-09 17:45:00,
2013-03-09 09:49:00,41.6,39.2,30.44,NNW,340,0.0,0.0,91,0.00,,---,0.00,VWS V14.01,2013-03-09 17:49:00,
2013-03-09 09:54:00,41.5,39.1,30.45,NNW,340,0.0,0.0,91,0.00,,---,0.00,VWS V14.01,2013-03-09 17:54:00,
2013-03-09 09:59:00,41.9,39.5,30.45,NNW,340,0.0,0.0,91,0.00,,---,0.00,VWS V14.01,2013-03-09 17:59:00,
2013-03-09 10:00:00,41.5,38.8,30.47,WSW,257,0.0,0.0,90,0.00,,---,0.00,VWS V14.01,2013-03-09 18:00:00,
2013-03-09 10:04:00,42.4,40.0,30.44,NNW,340,0.0,0.0,91,0.00,,---,0.00,VWS V14.01,2013-03-09 18:04:00,
2013-03-09 10:09:00,42.5,38.9,30.45,NNW,329,0.0,0.0,87,0.00,,---,0.00,VWS V14.01,2013-03-09 18:09:00,
2013-03-09 10:14:00,43.1,39.5,30.45,WSW,253,0.0,0.0,87,0.00,,---,0.00,VWS V14.01,2013-03-09 18:14:00,
2013-03-09 10:15:00,42.0,39.6,30.47,WSW,249,0.0,0.0,91,0.00,,---,0.00,VWS V14.01,2013-03-09 18:15:00,
2013-03-09 10:19:00,43.8,39.6,30.45,WSW,243,0.0,0.0,85,0.00,,---,0.00,VWS V14.01,2013-03-09 18:19:00,
2013-03-09 10:24:00,44.4,39.3,30.45,SSW,205,0.0,0.0,82,0.00,,---,0.00,VWS V14.01,2013-03-09 18:24:00,
2013-03-09 10:29:00,44.7,38.3,30.45,SSE,167,0.0,0.0,78,0.00,,---,0.00,VWS V14.01,2013-03-09 18:29:00,
2013-03-09 10:30:00,42.2,39.8,30.48,West,271,0.0,0.0,91,0.00,,---,0.00,VWS V14.01,2013-03-09 18:30:00,
2013-03-09 10:34:00,44.5,38.4,30.45,West,267,0.0,0.0,79,0.00,,---,0.00,VWS V14.01,2013-03-09 18:34:00,
2013-03-09 10:39:00,43.6,38.5,30.46,West,259,0.0,0.0,82,0.00,,---,0.00,VWS V14.01,2013-03-09 18:39:00,
2013-03-09 10:44:00,42.4,38.5,30.46,WNW,301,0.0,0.0,86,0.00,,---,0.00,VWS V14.01,2013-03-09 18:44:00,
2013-03-09 10:45:00,42.4,39.7,30.48,WNW,288,0.0,0.0,90,0.00,,---,0.00,VWS V14.01,2013-03-09 18:45:00,
2013-03-09 10:49:00,42.3,39.3,30.46,WNW,292,0.0,0.0,89,0.00,,---,0.00,VWS V14.01,2013-03-09 18:49:00,
2013-03-09 10:54:00,42.2,39.2,30.46,West,281,0.0,0.0,89,0.00,,---,0.00,VWS V14.01,2013-03-09 18:54:00,
2013-03-09 10:59:00,41.6,38.9,30.47,West,261,0.0,0.0,90,0.00,,---,0.00,VWS V14.01,2013-03-09 18:59:00,
2013-03-09 11:00:00,43.7,40.7,30.48,West,279,0.0,0.0,89,0.00,,---,0.00,VWS V14.01,2013-03-09 19:00:00,
2013-03-09 11:04:00,41.5,39.1,30.47,WSW,257,0.0,0.0,91,0.00,,---,0.00,VWS V14.01,2013-03-09 19:04:00,
2013-03-09 11:09:00,41.9,39.8,30.47,WSW,254,0.0,0.0,92,0.00,,---,0.00,VWS V14.01,2013-03-09 19:09:00,
2013-03-09 11:14:00,42.2,39.8,30.47,West,278,0.0,0.0,91,0.00,,---,0.00,VWS V14.01,2013-03-09 19:14:00,
2013-03-09 11:15:00,44.0,40.4,30.48,WSW,254,0.0,0.0,87,0.00,,---,0.00,VWS V14.01,2013-03-09 19:15:00,
2013-03-09 11:19:00,42.0,39.6,30.48,WSW,257,0.0,0.0,91,0.00,,---,0.00,VWS V14.01,2013-03-09 19:19:00,
2013-03-09 11:24:00,42.0,39.6,30.48,West,275,0.0,0.0,91,0.00,,---,0.00,VWS V14.01,2013-03-09 19:24:00,
2013-03-09 11:29:00,42.1,39.7,30.48,West,271,0.0,0.0,91,0.00,,---,0.00,VWS V14.01,2013-03-09 19:29:00,
2013-03-09 11:30:00,46.0,41.4,30.47,WNW,300,0.0,0.0,84,0.00,,---,0.00,VWS V14.01,2013-03-09 19:30:00,
2013-03-09 11:34:00,42.3,39.9,30.48,West,267,0.0,0.0,91,0.00,,---,0.00,VWS V14.01,2013-03-09 19:34:00,
2013-03-09 11:39:00,42.2,39.5,30.48,West,267,0.0,0.0,90,0.00,,---,0.00,VWS V14.01,2013-03-09 19:39:00,
2013-03-09 11:44:00,42.5,40.3,30.48,NW,304,0.0,0.0,92,0.00,,---,0.00,VWS V14.01,2013-03-09 19:44:00,
2013-03-09 11:45:00,48.5,42.3,30.47,WSW,242,0.0,0.0,79,0.00,,---,0.00,VWS V14.01,2013-03-09 19:45:00,
2013-03-09 11:49:00,42.6,40.4,30.48,WNW,288,0.0,0.0,92,0.00,,---,0.00,VWS V14.01,2013-03-09 19:49:00,
2013-03-09 11:54:00,43.1,40.4,30.48,WSW,243,0.0,0.0,90,0.00,,---,0.00,VWS V14.01,2013-03-09 19:54:00,
2013-03-09 11:59:00,43.4,40.4,30.48,West,263,0.0,0.0,89,0.00,,---,0.00,VWS V14.01,2013-03-09 19:59:00,
2013-03-09 12:00:00,48.6,41.7,30.47,South,184,0.0,0.0,77,0.00,,---,0.00,VWS V14.01,2013-03-09 20:00:00,
2013-03-09 12:04:00,44.0,41.0,30.48,WSW,252,0.0,0.0,89,0.00,,---,0.00,VWS V14.01,2013-03-09 20:04:00,
2013-03-09 12:09:00,44.3,40.7,30.48,WSW,254,0.0,0.0,87,0.00,,---,0.00,VWS V14.01,2013-03-09 20:09:00,
2013-03-09 12:14:00,44.0,40.4,30.48,WSW,254,0.0,0.0,87,0.00,,---,0.00,VWS V14.01,2013-03-09 20:14:00,
2013-03-09 12:15:00,50.2,42.2,30.47,WSW,254,0.0,0.0,74,0.00,,---,0.00,VWS V14.01,2013-03-09 20:15:00,
2013-03-09 12:19:00,44.1,40.5,30.48,WSW,258,0.0,0.0,87,0.00,,---,0.00,VWS V14.01,2013-03-09 20:19:00,
2013-03-09 12:24:00,44.8,40.9,30.48,West,264,0.0,0.0,86,0.00,,---,0.00,VWS V14.01,2013-03-09 20:24:00,
2013-03-09 12:29:00,45.6,41.0,30.48,WNW,295,0.0,0.0,84,0.00,,---,0.00,VWS V14.01,2013-03-09 20:29:00,
2013-03-09 12:30:00,50.1,42.2,30.46,West,280,0.0,0.0,74,0.00,,---,0.00,VWS V14.01,2013-03-09 20:30:00,
2013-03-09 12:34:00,46.4,41.5,30.47,WNW,293,0.0,0.0,83,0.00,,---,0.00,VWS V14.01,2013-03-09 20:34:00,
2013-03-09 12:39:00,47.3,42.1,30.47,SSW,204,0.0,0.0,82,0.00,,---,0.00,VWS V14.01,2013-03-09 20:39:00,
2013-03-09 12:44:00,48.3,42.1,30.47,West,263,0.0,0.0,79,0.00,,---,0.00,VWS V14.01,2013-03-09 20:44:00,
2013-03-09 12:45:00,48.7,41.5,30.46,West,269,0.0,0.0,76,0.00,,---,0.00,VWS V14.01,2013-03-09 20:45:00,
2013-03-09 12:49:00,48.4,41.5,30.47,WSW,252,0.0,0.0,77,0.00,,---,0.00,VWS V14.01,2013-03-09 20:49:00,
2013-03-09 12:54:00,48.7,41.8,30.47,South,184,0.0,0.0,77,0.00,,---,0.00,VWS V14.01,2013-03-09 20:54:00,
2013-03-09 12:59:00,48.5,42.0,30.47,SW,227,0.0,0.0,78,0.00,,---,0.00,VWS V14.01,2013-03-09 20:59:00,
2013-03-09 13:00:00,49.6,42.0,30.45,West,265,0.0,0.0,75,0.00,,---,0.00,VWS V14.01,2013-03-09 21:00:00,
2013-03-09 13:04:00,49.0,42.1,30.47,SSW,202,0.0,0.0,77,0.00,,---,0.00,VWS V14.01,2013-03-09 21:04:00,
2013-03-09 13:09:00,49.6,42.0,30.47,SW,227,0.0,0.0,75,0.00,,---,0.00,VWS V14.01,2013-03-09 21:09:00,
2013-03-09 13:14:00,50.0,42.0,30.47,West,264,0.0,0.0,74,0.00,,---,0.00,VWS V14.01,2013-03-09 21:14:00,
2013-03-09 13:15:00,50.3,42.0,30.45,West,265,0.0,0.0,73,0.00,,---,0.00,VWS V14.01,2013-03-09 21:15:00,
2013-03-09 13:19:00,50.3,42.3,30.46,West,273,0.0,0.0,74,0.00,,---,0.00,VWS V14.01,2013-03-09 21:19:00,
2013-03-09 13:24:00,49.8,41.9,30.46,WNW,285,0.0,0.0,74,0.00,,---,0.00,VWS V14.01,2013-03-09 21:24:00,
2013-03-09 13:29:00,50.0,42.4,30.46,West,267,0.0,0.0,75,0.00,,---,0.00,VWS V14.01,2013-03-09 21:29:00,
2013-03-09 13:30:00,51.8,42.0,30.46,NNW,332,0.0,0.0,69,0.00,,---,0.00,VWS V14.01,2013-03-09 21:30:00,
2013-03-09 13:34:00,49.9,42.0,30.46,WSW,257,0.0,0.0,74,0.00,,---,0.00,VWS V14.01,2013-03-09 21:34:00,
2013-03-09 13:39:00,49.5,42.3,30.46,West,278,0.0,0.0,76,0.00,,---,0.00,VWS V14.01,2013-03-09 21:39:00,
2013-03-09 13:44:00,48.8,41.2,30.46,West,265,0.0,0.0,75,0.00,,---,0.00,VWS V14.01,2013-03-09 21:44:00,
2013-03-09 13:45:00,51.3,41.1,30.46,WNW,295,0.0,0.0,68,0.00,,---,0.00,VWS V14.01,2013-03-09 21:45:00,
2013-03-09 13:49:00,49.0,42.5,30.45,West,263,0.0,0.0,78,0.00,,---,0.00,VWS V14.01,2013-03-09 21:49:00,
2013-03-09 13:54:00,49.2,42.6,30.45,WSW,239,0.0,0.0,78,0.00,,---,0.00,VWS V14.01,2013-03-09 21:54:00,
2013-03-09 13:59:00,49.6,42.0,30.45,West,262,0.0,0.0,75,0.00,,---,0.00,VWS V14.01,2013-03-09 21:59:00,
2013-03-09 14:00:00,51.8,39.6,30.45,West,275,0.0,0.0,63,0.00,,---,0.00,VWS V14.01,2013-03-09 22:00:00,
2013-03-09 14:04:00,49.5,41.9,30.45,WSW,246,0.0,0.0,75,0.00,,---,0.00,VWS V14.01,2013-03-09 22:04:00,
2013-03-09 14:09:00,50.5,42.9,30.45,WSW,246,0.0,0.0,75,0.00,,---,0.00,VWS V14.01,2013-03-09 22:09:00,
2013-03-09 14:14:00,50.4,42.1,30.46,SW,214,0.0,0.0,73,0.00,,---,0.00,VWS V14.01,2013-03-09 22:14:00,
2013-03-09 14:15:00,53.3,39.3,30.45,West,276,0.0,0.0,59,0.00,,---,0.00,VWS V14.01,2013-03-09 22:15:00,
2013-03-09 14:19:00,50.5,42.2,30.46,WSW,254,0.0,0.0,73,0.00,,---,0.00,VWS V14.01,2013-03-09 22:19:00,
2013-03-09 14:24:00,50.8,42.1,30.46,West,270,0.0,0.0,72,0.00,,---,0.00,VWS V14.01,2013-03-09 22:24:00,
2013-03-09 14:29:00,51.6,42.5,30.46,WNW,293,0.0,0.0,71,0.00,,---,0.00,VWS V14.01,2013-03-09 22:29:00,
2013-03-09 14:30:00,54.5,39.6,30.45,WNW,300,0.0,0.0,57,0.00,,---,0.00,VWS V14.01,2013-03-09 22:30:00,
2013-03-09 14:34:00,51.4,41.6,30.46,West,277,0.0,0.0,69,0.00,,---,0.00,VWS V14.01,2013-03-09 22:34:00,
2013-03-09 14:39:00,50.7,41.3,30.46,West,279,0.0,0.0,70,0.00,,---,0.00,VWS V14.01,2013-03-09 22:39:00,
2013-03-09 14:44:00,51.2,41.4,30.46,WNW,296,0.0,0.0,69,0.00,,---,0.00,VWS V14.01,2013-03-09 22:44:00,
2013-03-09 14:45:00,54.4,39.5,30.45,WNW,294,0.0,0.0,57,0.00,,---,0.00,VWS V14.01,2013-03-09 22:45:00,
2013-03-09 14:49:00,51.4,41.2,30.46,NW,315,0.0,0.0,68,0.00,,---,0.00,VWS V14.01,2013-03-09 22:49:00,
2013-03-09 14:54:00,51.5,40.5,30.46,NNW,333,0.0,0.0,66,0.00,,---,0.00,VWS V14.01,2013-03-09 22:54:00,
2013-03-09 14:59:00,51.8,39.6,30.45,West,270,0.0,0.0,63,0.00,,---,0.00,VWS V14.01,2013-03-09 22:59:00,
2013-03-09 15:00:00,53.6,39.2,30.45,NNW,331,0.0,0.0,58,0.00,,---,0.00,VWS V14.01,2013-03-09 23:00:00,
2013-03-09 15:04:00,52.2,40.0,30.45,NNW,327,0.0,0.0,63,0.00,,---,0.00,VWS V14.01,2013-03-09 23:04:00,
2013-03-09 15:09:00,53.0,39.5,30.45,West,263,0.0,0.0,60,0.00,,---,0.00,VWS V14.01,2013-03-09 23:09:00,
2013-03-09 15:14:00,53.0,39.5,30.45,NW,308,0.0,0.0,60,0.00,,---,0.00,VWS V14.01,2013-03-09 23:14:00,
2013-03-09 15:15:00,54.1,39.7,30.45,SSE,158,0.0,0.0,58,0.00,,---,0.00,VWS V14.01,2013-03-09 23:15:00,
2013-03-09 15:19:00,53.6,39.6,30.45,West,279,0.0,0.0,59,0.00,,---,0.00,VWS V14.01,2013-03-09 23:19:00,
2013-03-09 15:24:00,54.1,39.2,30.45,NW,317,0.0,0.0,57,0.00,,---,0.00,VWS V14.01,2013-03-09 23:24:00,
2013-03-09 15:29:00,54.4,40.0,30.45,West,259,0.0,0.0,58,0.00,,---,0.00,VWS V14.01,2013-03-09 23:29:00,
2013-03-09 15:30:00,54.0,38.7,30.45,WNW,286,0.0,0.0,56,0.00,,---,0.00,VWS V14.01,2013-03-09 23:30:00,
2013-03-09 15:34:00,54.6,39.7,30.46,North,360,0.0,0.0,57,0.00,,---,0.00,VWS V14.01,2013-03-09 23:34:00,
2013-03-09 15:39:00,54.4,39.5,30.45,WNW,298,0.0,0.0,57,0.00,,---,0.00,VWS V14.01,2013-03-09 23:39:00,
2013-03-09 15:44:00,54.5,39.6,30.45,WNW,294,0.0,0.0,57,0.00,,---,0.00,VWS V14.01,2013-03-09 23:44:00,
2013-03-09 15:45:00,54.2,38.9,30.46,NNW,329,0.0,0.0,56,0.00,,---,0.00,VWS V14.01,2013-03-09 23:45:00,
2013-03-09 15:49:00,54.5,40.0,30.45,WSW,251,0.0,0.0,58,0.00,,---,0.00,VWS V14.01,2013-03-09 23:49:00,
2013-03-09 15:54:00,53.9,39.5,30.45,West,271,0.0,0.0,58,0.00,,---,0.00,VWS V14.01,2013-03-09 23:54:00,
2013-03-09 15:59:00,53.7,39.3,30.45,NNW,348,0.0,0.0,58,0.00,,---,0.00,VWS V14.01,2013-03-09 23:59:00,
2013-03-09 16:00:00,53.5,39.1,30.46,West,270,0.0,0.0,58,0.00,,---,0.00,VWS V14.01,2013-03-10 00:00:00,
2013-03-09 16:04:00,53.8,39.4,30.45,NNW,331,0.0,0.0,58,0.00,,---,0.00,VWS V14.01,2013-03-10 00:04:00,
2013-03-09 16:09:00,54.2,40.2,30.45,NNW,331,0.0,0.0,59,0.00,,---,0.00,VWS V14.01,2013-03-10 00:09:00,
2013-03-09 16:14:00,54.2,39.8,30.45,SSE,158,0.0,0.0,58,0.00,,---,0.00,VWS V14.01,2013-03-10 00:14:00,
2013-03-09 16:15:00,53.6,39.6,30.45,WNW,298,0.0,0.0,59,0.00,,---,0.00,VWS V14.01,2013-03-10 00:15:00,
2013-03-09 16:19:00,54.2,39.8,30.45,SSE,158,0.0,0.0,58,0.00,,---,0.00,VWS V14.01,2013-03-10 00:19:00,
2013-03-09 16:24:00,54.6,39.7,30.45,SE,135,0.0,0.0,57,0.00,,---,0.00,VWS V14.01,2013-03-10 00:24:00,
2013-03-09 16:29:00,54.3,39.0,30.45,West,278,0.0,0.0,56,0.00,,---,0.00,VWS V14.01,2013-03-10 00:29:00,
2013-03-09 16:30:00,53.6,40.1,30.46,SSW,192,0.0,0.0,60,0.00,,---,0.00,VWS V14.01,2013-03-10 00:30:00,
2013-03-09 16:34:00,53.9,39.0,30.45,WNW,286,0.0,0.0,57,0.00,,---,0.00,VWS V14.01,2013-03-10 00:34:00,
2013-03-09 16:39:00,54.3,39.0,30.45,WSW,247,0.0,0.0,56,0.00,,---,0.00,VWS V14.01,2013-03-10 00:39:00,
2013-03-09 16:44:00,54.4,39.0,30.45,WSW,247,0.0,0.0,56,0.00,,---,0.00,VWS V14.01,2013-03-10 00:44:00,
2013-03-09 16:45:00,53.7,40.2,30.46,South,188,0.0,0.0,60,0.00,,---,0.00,VWS V14.01,2013-03-10 00:45:00,
2013-03-09 16:49:00,54.0,39.1,30.46,West,273,0.0,0.0,57,0.00,,---,0.00,VWS V14.01,2013-03-10 00:49:00,
2013-03-09 16:54:00,53.9,39.0,30.46,West,271,0.0,0.0,57,0.00,,---,0.00,VWS V14.01,2013-03-10 00:54:00,
2013-03-09 16:59:00,53.6,39.2,30.46,West,264,0.0,0.0,58,0.00,,---,0.00,VWS V14.01,2013-03-10 00:59:00,
2013-03-09 17:00:00,53.3,40.2,30.46,South,187,0.0,0.0,61,0.00,,---,0.00,VWS V14.01,2013-03-10 01:00:00,
2013-03-09 17:04:00,53.3,38.9,30.46,West,271,0.0,0.0,58,0.00,,---,0.00,VWS V14.01,2013-03-10 01:04:00,
2013-03-09 17:09:00,53.5,39.5,30.46,WNW,298,0.0,0.0,59,0.00,,---,0.00,VWS V14.01,2013-03-10 01:09:00,
2013-03-09 17:14:00,53.5,39.1,30.46,WNW,298,0.0,0.0,58,0.00,,---,0.00,VWS V14.01,2013-03-10 01:14:00,
2013-03-09 17:15:00,53.1,40.0,30.47,South,187,0.0,0.0,61,0.00,,---,0.00,VWS V14.01,2013-03-10 01:15:00,
2013-03-09 17:19:00,53.6,39.6,30.46,WNW,298,0.0,0.0,59,0.00,,---,0.00,VWS V14.01,2013-03-10 01:19:00,
2013-03-09 17:24:00,53.7,40.2,30.46,WNW,298,0.0,0.0,60,0.00,,---,0.00,VWS V14.01,2013-03-10 01:24:00,
2013-03-09 17:29:00,53.6,40.1,30.46,SSW,192,0.0,0.0,60,0.00,,---,0.00,VWS V14.01,2013-03-10 01:29:00,
2013-03-09 17:30:00,52.6,40.0,30.47,South,188,0.0,0.0,62,0.00,,---,0.00,VWS V14.01,2013-03-10 01:30:00,
2013-03-09 17:34:00,53.7,40.2,30.46,SSW,192,0.0,0.0,60,0.00,,---,0.00,VWS V14.01,2013-03-10 01:34:00,
2013-03-09 17:39:00,53.9,39.9,30.46,SSW,192,0.0,0.0,59,0.00,,---,0.00,VWS V14.01,2013-03-10 01:39:00,
2013-03-09 17:44:00,53.8,40.3,30.46,South,186,0.0,0.0,60,0.00,,---,0.00,VWS V14.01,2013-03-10 01:44:00,
2013-03-09 17:45:00,52.3,40.1,30.47,South,188,0.0,0.0,63,0.00,,---,0.00,VWS V14.01,2013-03-10 01:45:00,
2013-03-09 17:49:00,53.6,40.1,30.46,South,188,0.0,0.0,60,0.00,,---,0.00,VWS V14.01,2013-03-10 01:49:00,
2013-03-09 17:54:00,53.5,40.4,30.46,South,188,0.0,0.0,61,0.00,,---,0.00,VWS V14.01,2013-03-10 01:54:00,
2013-03-09 17:59:00,53.4,40.3,30.46,South,187,0.0,0.0,61,0.00,,---,0.00,VWS V14.01,2013-03-10 01:59:00,
2013-03-09 18:00:00,52.2,40.0,30.47,South,188,0.0,0.0,63,0.00,,---,0.00,VWS V14.01,2013-03-10 02:00:00,
2013-03-09 18:04:00,53.3,40.6,30.47,South,187,0.0,0.0,62,0.00,,---,0.00,VWS V14.01,2013-03-10 02:04:00,
2013-03-09 18:09:00,53.2,40.5,30.46,South,187,0.0,0.0,62,0.00,,---,0.00,VWS V14.01,2013-03-10 02:09:00,
2013-03-09 18:14:00,53.1,40.4,30.47,South,187,0.0,0.0,62,0.00,,---,0.00,VWS V14.01,2013-03-10 02:14:00,
2013-03-09 18:15:00,51.9,39.7,30.48,South,188,0.0,0.0,63,0.00,,---,0.00,VWS V14.01,2013-03-10 02:15:00,
2013-03-09 18:19:00,53.0,40.3,30.47,South,187,0.0,0.0,62,0.00,,---,0.00,VWS V14.01,2013-03-10 02:19:00,
2013-03-09 18:24:00,52.9,40.2,30.47,South,187,0.0,0.0,62,0.00,,---,0.00,VWS V14.01,2013-03-10 02:24:00,
2013-03-09 18:29:00,52.7,40.1,30.47,South,188,0.0,0.0,62,0.00,,---,0.00,VWS V14.01,2013-03-10 02:29:00,
2013-03-09 18:30:00,51.9,40.5,30.49,South,188,0.0,0.0,65,0.00,,---,0.00,VWS V14.01,2013-03-10 02:30:00,
2013-03-09 18:34:00,52.5,40.3,30.47,South,188,0.0,0.0,63,0.00,,---,0.00,VWS V14.01,2013-03-10 02:34:00,
2013-03-09 18:39:00,52.4,40.2,30.47,South,188,0.0,0.0,63,0.00,,---,0.00,VWS V14.01,2013-03-10 02:39:00,
2013-03-09 18:44:00,52.4,40.2,30.47,South,188,0.0,0.0,63,0.00,,---,0.00,VWS V14.01,2013-03-10 02:44:00,
2013-03-09 18:45:00,50.7,41.7,30.49,WSW,254,0.0,0.0,71,0.00,,---,0.00,VWS V14.01,2013-03-10 02:45:00,
2013-03-09 18:49:00,52.3,40.1,30.47,South,188,0.0,0.0,63,0.00,,---,0.00,VWS V14.01,2013-03-10 02:49:00,
2013-03-09 18:54:00,52.2,40.0,30.47,South,188,0.0,0.0,63,0.00,,---,0.00,VWS V14.01,2013-03-10 02:54:00,
2013-03-09 18:59:00,52.2,40.0,30.47,South,188,0.0,0.0,63,0.00,,---,0.00,VWS V14.01,2013-03-10 02:59:00,
2013-03-09 19:00:00,47.7,43.1,30.50,West,262,0.0,0.0,84,0.00,,---,0.00,VWS V14.01,2013-03-10 03:00:00,
2013-03-09 19:04:00,52.1,39.9,30.47,South,188,0.0,0.0,63,0.00,,---,0.00,VWS V14.01,2013-03-10 03:04:00,
2013-03-09 19:09:00,52.1,39.9,30.48,South,188,0.0,0.0,63,0.00,,---,0.00,VWS V14.01,2013-03-10 03:09:00,
2013-03-09 19:14:00,52.0,39.8,30.48,South,188,0.0,0.0,63,0.00,,---,0.00,VWS V14.01,2013-03-10 03:14:00,
2013-03-09 19:15:00,47.7,42.8,30.49,West,261,0.0,0.0,83,0.00,,---,0.00,VWS V14.01,2013-03-10 03:15:00,
2013-03-09 19:19:00,51.8,39.6,30.48,South,188,0.0,0.0,63,0.00,,---,0.00,VWS V14.01,2013-03-10 03:19:00,
2013-03-09 19:24:00,51.8,39.6,30.48,South,188,0.0,0.0,63,0.00,,---,0.00,VWS V14.01,2013-03-10 03:24:00,
2013-03-09 19:29:00,51.9,40.1,30.48,South,188,0.0,0.0,64,0.00,,---,0.00,VWS V14.01,2013-03-10 03:29:00,
2013-03-09 19:30:00,48.1,41.6,30.50,West,261,0.0,0.0,78,0.00,,---,0.00,VWS V14.01,2013-03-10 03:30:00,
2013-03-09 19:34:00,51.8,41.2,30.49,South,188,0.0,0.0,67,0.00,,---,0.00,VWS V14.01,2013-03-10 03:34:00,
2013-03-09 19:39:00,51.4,41.6,30.49,WSW,239,0.0,0.0,69,0.00,,---,0.00,VWS V14.01,2013-03-10 03:39:00,
2013-03-09 19:44:00,50.8,41.4,30.49,WSW,254,0.0,0.0,70,0.00,,---,0.00,VWS V14.01,2013-03-10 03:44:00,
2013-03-09 19:45:00,47.6,41.1,30.50,West,261,0.0,0.0,78,0.00,,---,0.00,VWS V14.01,2013-03-10 03:45:00,
2013-03-09 19:49:00,50.6,41.2,30.49,WSW,253,0.0,0.0,70,0.00,,---,0.00,VWS V14.01,2013-03-10 03:49:00,
2013-03-09 19:54:00,48.7,43.5,30.50,West,269,0.0,0.0,82,0.00,,---,0.00,VWS V14.01,2013-03-10 03:54:00,
2013-03-09 19:59:00,47.7,43.4,30.50,West,272,0.0,0.0,85,0.00,,---,0.00,VWS V14.01,2013-03-10 03:59:00,
2013-03-09 20:00:00,47.1,40.9,30.50,West,265,0.0,0.0,79,0.00,,---,0.00,VWS V14.01,2013-03-10 04:00:00,
2013-03-09 20:04:00,47.7,43.1,30.50,West,262,0.0,0.0,84,0.00,,---,0.00,VWS V14.01,2013-03-10 04:04:00,
2013-03-09 20:09:00,47.7,43.1,30.50,West,261,0.0,0.0,84,0.00,,---,0.00,VWS V14.01,2013-03-10 04:09:00,
2013-03-09 20:14:00,47.7,43.1,30.50,West,261,0.0,0.0,84,0.00,,---,0.00,VWS V14.01,2013-03-10 04:14:00,
2013-03-09 20:15:00,46.5,40.7,30.50,West,265,0.0,0.0,80,0.00,,---,0.00,VWS V14.01,2013-03-10 04:15:00,
2013-03-09 20:19:00,47.7,42.5,30.50,West,261,0.0,0.0,82,0.00,,---,0.00,VWS V14.01,2013-03-10 04:19:00,
2013-03-09 20:24:00,47.9,42.0,30.50,West,261,0.0,0.0,80,0.00,,---,0.00,VWS V14.01,2013-03-10 04:24:00,
2013-03-09 20:29:00,48.1,41.6,30.50,West,261,0.0,0.0,78,0.00,,---,0.00,VWS V14.01,2013-03-10 04:29:00,
2013-03-09 20:30:00,46.1,40.6,30.50,WNW,299,0.0,0.0,81,0.00,,---,0.00,VWS V14.01,2013-03-10 04:30:00,
2013-03-09 20:34:00,48.2,41.7,30.50,West,261,0.0,0.0,78,0.00,,---,0.00,VWS V14.01,2013-03-10 04:34:00,
2013-03-09 20:39:00,48.3,41.8,30.50,West,261,0.0,0.0,78,0.00,,---,0.00,VWS V14.01,2013-03-10 04:39:00,
2013-03-09 20:44:00,47.8,41.0,30.50,West,261,0.0,0.0,77,0.00,,---,0.00,VWS V14.01,2013-03-10 04:44:00,
2013-03-09 20:45:00,45.9,40.7,30.51,NW,309,0.0,0.0,82,0.00,,---,0.00,VWS V14.01,2013-03-10 04:45:00,
2013-03-09 20:49:00,47.5,41.0,30.50,West,261,0.0,0.0,78,0.00,,---,0.00,VWS V14.01,2013-03-10 04:49:00,
2013-03-09 20:54:00,47.3,40.8,30.50,West,261,0.0,0.0,78,0.00,,---,0.00,VWS V14.01,2013-03-10 04:54:00,
2013-03-09 20:59:00,47.2,41.0,30.50,West,261,0.0,0.0,79,0.00,,---,0.00,VWS V14.01,2013-03-10 04:59:00,
2013-03-09 21:00:00,47.1,40.9,30.50,West,261,0.0,0.0,79,0.00,,---,0.00,VWS V14.01,2013-03-10 05:00:00,
2013-03-09 21:05:00,46.9,40.7,30.50,West,266,0.0,0.0,79,0.00,,---,0.00,VWS V14.01,2013-03-10 05:05:00,
2013-03-09 21:10:00,46.8,40.6,30.50,West,265,0.0,0.0,79,0.00,,---,0.00,VWS V14.01,2013-03-10 05:10:00,
2013-03-09 21:15:00,46.6,40.8,30.50,West,265,0.0,0.0,80,0.00,,---,0.00,VWS V14.01,2013-03-10 05:15:00,
2013-03-09 21:20:00,46.5,40.7,30.50,West,265,0.0,0.0,80,0.00,,---,0.00,VWS V14.01,2013-03-10 05:20:00,
2013-03-09 21:25:00,46.3,40.8,30.50,West,279,0.0,0.0,81,0.00,,---,0.00,VWS V14.01,2013-03-10 05:25:00,
2013-03-09 21:30:00,46.1,40.6,30.50,WNW,299,0.0,0.0,81,0.00,,---,0.00,VWS V14.01,2013-03-10 05:30:00,
2013-03-09 21:35:00,46.0,40.5,30.50,NW,309,0.0,0.0,81,0.00,,---,0.00,VWS V14.01,2013-03-10 05:35:00,
2013-03-09 21:40:00,45.9,40.7,30.51,NW,309,0.0,0.0,82,0.00,,---,0.00,VWS V14.01,2013-03-10 05:40:00,
2013-03-09 21:45:00,45.9,40.7,30.51,NW,309,0.0,0.0,82,0.00,,---,0.00,VWS V14.01,2013-03-10 05:45:00,
2013-03-09 21:50:00,45.9,40.7,30.51,WNW,303,0.0,0.0,82,0.00,,---,0.00,VWS V14.01,2013-03-10 05:50:00,
2013-03-09 21:55:00,45.9,40.7,30.51,North,5,0.0,0.0,82,0.00,,---,0.00,VWS V14.01,2013-03-10 05:55:00,
2013-03-09 22:00:00,45.8,40.3,30.51,North,9,0.0,0.0,81,0.00,,---,0.00,VWS V14.01,2013-03-10 06:00:00,
2013-03-09 22:05:00,45.6,40.4,30.51,North,9,0.0,0.0,82,0.00,,---,0.00,VWS V14.01,2013-03-10 06:05:00,
2013-03-09 22:10:00,45.6,40.4,30.51,North,10,0.0,0.0,82,0.00,,---,0.00,VWS V14.01,2013-03-10 06:10:00,
2013-03-09 22:15:00,45.5,40.3,30.51,NNE,14,0.0,0.0,82,0.00,,---,0.00,VWS V14.01,2013-03-10 06:15:00,
2013-03-09 22:20:00,45.4,40.2,30.51,ENE,59,0.0,0.0,82,0.00,,---,0.00,VWS V14.01,2013-03-10 06:20:00,
2013-03-09 22:25:00,45.3,40.1,30.51,East,86,0.0,0.0,82,0.00,,---,0.00,VWS V14.01,2013-03-10 06:25:00,
2013-03-09 22:30:00,45.2,40.0,30.51,ENE,78,0.0,0.0,82,0.00,,---,0.00,VWS V14.01,2013-03-10 06:30:00,
2013-03-09 22:35:00,45.2,40.0,30.51,ENE,78,0.0,0.0,82,0.00,,---,0.00,VWS V14.01,2013-03-10 06:35:00,
2013-03-09 22:40:00,45.1,39.9,30.51,ENE,57,0.0,0.0,82,0.00,,---,0.00,VWS V14.01,2013-03-10 06:40:00,
2013-03-09 22:45:00,45.0,39.8,30.51,ENE,57,0.0,0.0,82,0.00,,---,0.00,VWS V14.01,2013-03-10 06:45:00,
2013-03-09 22:50:00,44.9,39.8,30.51,ENE,57,0.0,0.0,82,0.00,,---,0.00,VWS V14.01,2013-03-10 06:50:00,
2013-03-09 22:55:00,44.9,39.8,30.51,ENE,57,0.0,0.0,82,0.00,,---,0.00,VWS V14.01,2013-03-10 06:55:00,
2013-03-09 23:00:00,44.8,40.0,30.51,ENE,57,0.0,0.0,83,0.00,,---,0.00,VWS V14.01,2013-03-10 07:00:00,
2013-03-09 23:05:00,44.7,39.9,30.51,ENE,57,0.0,0.0,83,0.00,,---,0.00,VWS V14.01,2013-03-10 07:05:00,
2013-03-09 23:10:00,44.6,39.8,30.51,ENE,57,0.0,0.0,83,0.00,,---,0.00,VWS V14.01,2013-03-10 07:10:00,
2013-03-09 23:15:00,44.5,39.7,30.51,ENE,57,0.0,0.0,83,0.00,,---,0.00,VWS V14.01,2013-03-10 07:15:00,
2013-03-09 23:20:00,44.5,39.7,30.51,ENE,57,0.0,0.0,83,0.00,,---,0.00,VWS V14.01,2013-03-10 07:20:00,
2013-03-09 23:25:00,44.6,39.8,30.51,ENE,57,0.0,0.0,83,0.00,,---,0.00,VWS V14.01,2013-03-10 07:25:00,
2013-03-09 23:30:00,44.4,39.6,30.51,ENE,57,0.0,0.0,83,0.00,,---,0.00,VWS V14.01,2013-03-10 07:30:00,
2013-03-09 23:35:00,44.3,39.8,30.51,ENE,57,0.0,0.0,84,0.00,,---,0.00,VWS V14.01,2013-03-10 07:35:00,
2013-03-09 23:40:00,44.2,39.7,30.51,ENE,57,0.0,0.0,84,0.00,,---,0.00,VWS V14.01,2013-03-10 07:40:00,
2013-03-09 23:45:00,44.0,39.5,30.51,ENE,57,0.0,0.0,84,0.00,,---,0.00,VWS V14.01,2013-03-10 07:45:00,
2013-03-09 23:50:00,44.0,39.5,30.51,ENE,57,0.0,0.0,84,0.00,,---,0.00,VWS V14.01,2013-03-10 07:50:00,
2013-03-09 23:55:00,43.9,39.4,30.51,ENE,57,0.0,0.0,84,0.00,,---,0.00,VWS V14.01,2013-03-10 07:55:00,